GEFSNGP_con_prob3kmehi_144.txt.gz
EHI
0 0 0 0 0 0 0 0 0 0 0 0 0 1 2 1 1 4 5 2 1 2 3 2 1 1 1 1 0 0 1 2 3 3 2 3 3 3 4 4 3 2 1 1
0 0 0 0 0 0 0 0 0 0 0 0 1 2 2 1 2 4 5 3 2 2 3 2 1 0 1 1 0 0 1 2 3 3 3 4 4 4 4 4 3 1 0 1
0 0 0 0 0 0 0 1 1 0 1 2 4 4 4 3 3 4 5 4 3 4 5 4 2 1 0 0 0 0 1 2 3 4 4 5 5 4 4 3 2 1 0 0
0 0 0 0 0 0 0 1 1 1 2 3 4 4 4 4 4 6 6 5 4 5 5 3 2 2 1 0 0 0 0 1 2 3 4 4 4 4 3 2 1 0 0 0
0 0 0 0 0 0 0 1 1 1 2 2 2 2 2 2 3 4 5 4 3 3 2 1 1 2 2 1 1 1 1 0 1 3 3 3 3 3 1 1 0 0 0 0
0 0 0 0 0 0 0 0 0 1 1 1 1 1 0 0 1 1 3 3 1 1 0 0 0 1 1 1 1 2 1 0 1 3 3 3 3 2 1 0 0 0 0 0
0 0 0 0 0 0 0 0 0 0 0 1 1 1 0 0 0 0 1 1 1 0 0 0 0 0 0 0 1 1 1 0 1 3 3 2 1 1 1 1 1 1 1 0
0 0 0 0 0 0 0 0 0 0 0 0 0 0 0 0 0 0 0 0 0 0 0 0 0 0 0 0 0 0 0 0 0 1 2 1 1 1 2 2 2 2 2 1
0 0 0 0 0 0 0 0 0 0 0 0 0 0 0 0 0 0 0 0 0 0 0 0 0 0 0 0 0 0 0 0 1 1 2 2 2 3 3 3 3 3 2 1
0 0 0 0 0 0 1 0 0 0 0 0 0 0 0 0 0 0 0 0 0 0 0 0 0 0 0 0 0 0 0 0 1 2 3 3 2 2 2 2 2 1 1 0
0 0 0 0 0 0 0 0 0 0 0 0 0 0 0 0 0 0 0 0 0 0 0 0 0 0 0 0 0 0 0 0 1 2 2 1 1 1 1 1 1 0 0 0
0 0 0 0 0 0 0 0 0 0 0 0 0 0 0 0 0 0 0 0 0 0 0 0 0 0 0 0 0 0 0 0 0 1 1 0 0 0 0 0 0 0 0 0
0 0 0 0 0 0 0 0 0 0 0 0 0 0 0 0 0 0 0 0 0 0 0 0 0 0 0 0 0 0 0 0 0 0 0 0 0 0 0 0 0 0 0 0
0 0 0 0 0 0 0 0 0 0 0 0 0 0 0 0 0 0 0 0 0 0 0 0 0 0 0 0 0 0 0 0 0 0 0 0 0 0 0 0 0 0 0 0
0 0 0 0 0 0 0 0 0 0 0 0 0 0 0 0 0 0 0 0 0 0 0 0 0 0 0 0 0 0 0 0 0 0 0 0 0 0 0 0 0 0 0 0
0 0 0 0 0 0 0 0 0 0 0 0 0 0 0 0 0 0 0 0 0 0 0 0 0 0 0 0 0 0 0 0 0 0 0 0 0 0 0 0 0 0 0 0
0 0 0 0 0 0 0 0 0 0 0 0 0 0 0 0 0 0 0 0 0 0 0 0 0 0 0 0 0 0 0 0 0 0 0 0 0 0 0 0 0 0 0 0
0 0 0 0 0 0 0 0 0 0 0 0 0 0 0 0 0 0 0 0 0 0 0 0 0 0 0 0 0 0 0 0 0 0 0 0 0 0 0 0 0 0 0 0
0 0 0 0 0 0 0 0 0 0 0 0 0 0 0 0 0 0 0 0 0 0 0 0 0 0 0 0 0 0 0 0 0 0 0 0 0 0 0 0 0 0 0 0
0 0 0 0 0 0 0 0 0 0 0 0 0 0 0 0 0 0 0 0 0 0 0 0 0 0 0 0 0 0 0 0 0 0 0 0 0 0 0 0 0 0 0 0
0 0 0 0 0 0 0 0 0 0 0 0 0 0 0 0 0 0 0 0 0 0 0 0 0 0 0 0 0 0 0 0 0 0 0 0 0 0 0 0 0 0 0 0
0 0 0 0 0 0 0 0 0 0 0 0 0 0 0 0 0 0 0 0 0 0 0 0 0 0 0 0 0 0 0 0 0 0 0 0 0 0 0 0 0 0 0 0
0 0 0 0 0 0 0 0 0 0 0 0 0 0 0 0 0 0 0 0 0 0 0 0 0 0 0 0 0 0 0 0 0 0 0 0 0 0 0 0 0 0 0 0
0 0 0 0 0 0 0 0 0 0 0 0 0 0 0 0 0 0 0 0 0 0 0 0 0 0 0 0 0 0 0 0 0 0 0 0 0 0 0 0 0 0 0 0
0 0 0 0 0 0 0 0 0 0 0 0 0 0 0 0 0 0 0 0 0 0 0 0 0 0 0 0 0 0 0 0 0 0 0 0 0 0 0 0 0 0 0 0
0 0 0 0 0 0 0 0 0 0 0 0 0 0 0 0 0 0 0 0 0 0 0 0 0 0 0 0 0 0 0 0 0 0 0 0 0 0 0 0 0 0 0 0
0 0 0 0 0 0 0 0 0 0 0 0 0 0 0 0 0 0 0 0 0 0 0 0 0 0 0 0 0 0 0 0 0 0 0 0 0 0 0 0 0 0 0 0

GEFSNGP_con_prob3kmehi_150.txt.gz
EHI
0 0 0 0 0 0 0 0 0 1 2 5 10 14 15 16 19 23 25 24 23 24 24 20 18 17 14 13 13 15 15 13 13 13 14 14 14 14 13 10 9 11 12 12
0 0 0 0 0 0 0 0 0 1 4 8 13 17 19 20 22 25 24 22 23 25 23 19 17 16 15 14 14 15 14 13 12 12 12 12 12 12 11 10 9 9 10 11
0 0 0 0 1 1 0 0 0 1 5 11 17 21 25 26 26 26 25 23 23 25 24 20 18 17 17 17 17 16 14 13 13 12 12 11 11 11 11 11 10 9 8 8
0 0 0 0 1 1 1 0 1 3 6 12 19 24 27 27 27 27 25 23 23 25 24 23 20 18 18 19 18 17 16 15 15 14 13 13 13 13 14 14 12 9 6 5
0 0 0 0 1 1 1 1 3 6 9 12 16 20 22 23 24 25 24 20 20 22 24 23 21 20 19 18 17 17 17 16 15 13 13 14 15 17 17 15 11 8 5 4
0 0 1 1 0 1 1 2 5 8 9 10 13 17 19 19 18 18 18 16 15 20 23 23 21 20 18 16 15 15 15 15 14 14 14 14 16 17 16 13 10 7 5 5
0 0 1 1 1 1 2 5 9 10 10 12 16 19 20 18 14 12 13 13 14 17 20 20 19 17 15 14 13 14 14 14 14 16 15 14 14 15 14 12 10 7 5 4
0 0 1 2 3 3 5 10 14 15 15 19 21 20 18 14 11 9 9 10 12 14 14 14 15 15 13 13 14 15 15 12 11 13 14 13 12 12 12 11 9 5 3 3
0 0 0 2 5 7 9 12 14 16 17 18 18 15 12 9 8 7 6 8 10 12 11 10 11 13 13 13 14 14 13 9 7 8 9 9 9 8 8 8 7 4 3 3
0 0 1 2 6 9 11 10 10 10 11 11 11 10 8 6 5 4 3 4 8 11 10 8 8 9 10 11 10 9 8 5 4 4 5 5 4 4 4 4 3 3 3 3
0 0 2 4 7 10 11 9 5 4 5 6 6 6 4 2 2 1 1 2 5 9 8 6 5 6 7 7 6 5 3 2 2 3 3 2 1 1 1 1 1 2 2 1
1 1 3 6 9 9 8 6 3 1 2 3 2 2 1 0 0 0 0 1 3 5 5 4 3 4 4 4 3 2 1 0 1 2 1 1 0 0 0 0 0 1 1 0
2 3 3 5 7 6 4 2 1 0 0 0 0 0 0 0 0 0 0 1 2 3 2 1 1 2 2 1 1 1 0 0 0 0 0 0 0 0 0 0 0 0 0 0
1 2 3 3 4 4 3 1 0 0 0 0 0 0 0 0 0 0 0 1 2 2 1 0 0 0 0 0 0 0 0 0 0 0 0 0 0 0 0 0 0 0 0 0
0 1 1 2 3 3 3 1 0 0 0 0 0 0 0 0 0 0 0 1 1 1 0 0 0 0 0 0 0 0 0 0 0 0 0 0 0 0 0 0 0 0 0 0
0 0 0 1 2 2 1 1 0 0 0 0 0 0 0 0 0 0 0 0 0 0 0 0 0 0 0 0 0 0 0 0 0 0 0 0 0 0 0 0 0 0 0 0
0 0 0 0 1 1 0 0 0 0 0 0 0 0 0 0 0 0 0 0 0 0 0 0 0 0 0 0 0 0 0 0 0 0 0 0 0 0 0 0 0 0 0 0
0 0 0 0 0 0 0 0 0 0 0 0 0 0 0 0 0 0 0 0 0 0 0 0 0 0 0 0 0 0 0 0 0 0 0 0 0 0 0 0 0 0 0 0
0 0 0 0 0 0 0 0 0 0 0 0 0 0 0 0 0 0 0 0 0 0 0 0 0 0 0 0 0 0 0 0 0 0 0 0 0 0 0 0 0 0 0 0
0 0 0 0 0 0 0 0 0 0 0 0 0 0 0 0 0 0 0 0 0 0 0 0 0 0 0 0 0 0 0 0 0 0 0 0 0 0 0 0 0 0 0 0
0 0 0 0 0 0 0 0 0 0 0 0 0 0 0 0 0 0 0 0 0 0 0 0 0 0 0 0 0 0 0 0 0 0 0 0 0 0 0 0 0 0 0 0
0 0 0 0 0 0 0 0 0 0 0 0 0 0 0 0 0 0 0 0 0 0 0 0 0 0 0 0 0 0 0 0 0 0 0 0 0 0 0 0 0 0 0 0
0 0 0 0 0 0 0 0 0 0 0 0 0 0 0 0 0 0 0 0 0 0 0 0 0 0 0 0 0 0 0 0 0 0 0 0 0 0 0 0 0 0 0 0
0 0 0 0 0 0 0 0 0 0 0 0 0 0 0 0 0 0 0 0 0 0 0 0 0 0 0 0 0 0 0 0 0 0 0 0 0 0 0 0 0 0 0 0
0 0 0 0 0 0 0 0 0 0 0 0 0 0 0 0 0 0 0 0 0 0 0 0 0 0 0 0 0 0 0 0 0 0 0 0 0 0 0 0 0 0 0 0
0 0 0 0 0 0 0 0 0 0 0 0 0 0 0 0 0 0 0 0 0 0 0 0 0 0 0 0 0 0 0 0 0 0 0 0 0 0 0 0 0 0 0 0
0 0 0 0 0 0 0 0 0 0 0 0 0 0 0 0 0 0 0 0 0 0 0 0 0 0 0 0 0 0 0 0 0 0 0 0 0 0 0 0 0 0 0 0

GEFSNGP_con_prob3kmehi_156.txt.gz
EHI
0 0 0 0 0 0 0 0 1 4 10 15 20 26 28 25 29 38 41 39 43 49 47 44 45 46 39 31 27 28 27 25 23 24 25 26 25 23 21 19 16 15 14 12
0 0 0 0 0 0 1 1 1 4 10 17 23 28 30 29 32 37 40 41 45 50 47 44 45 45 40 32 29 30 30 26 26 26 25 25 23 21 20 19 16 14 12 11
0 0 0 0 0 1 2 3 3 8 16 21 25 30 34 37 38 40 42 46 49 49 45 43 42 42 39 34 31 33 32 30 28 26 23 21 20 21 22 21 18 15 11 10
0 0 0 0 0 1 4 5 6 13 23 27 29 34 41 45 47 46 47 51 51 45 40 39 40 40 37 33 32 33 33 32 29 24 20 20 20 22 23 23 19 15 11 9
0 0 1 2 3 3 4 7 12 20 27 29 33 40 45 49 50 49 48 50 48 42 38 39 42 42 37 32 31 32 33 33 30 26 24 24 23 22 21 19 16 12 9 7
0 0 1 5 6 6 8 15 24 31 31 31 34 40 45 47 48 48 47 47 46 44 43 45 47 44 39 34 32 32 33 34 33 30 28 25 23 20 18 15 13 10 7 5
0 0 2 5 8 11 19 31 38 39 38 37 39 43 45 45 46 45 44 44 45 46 45 46 46 43 40 36 33 33 33 34 33 30 27 22 20 18 16 13 11 9 6 4
2 3 6 11 15 21 34 43 42 41 43 45 46 46 44 43 42 39 36 36 39 42 41 40 39 38 37 34 31 29 28 29 29 26 21 17 15 14 12 10 8 7 5 4
8 11 15 19 23 28 36 41 41 40 42 46 46 43 39 37 34 29 25 26 31 34 34 32 30 30 29 26 24 22 22 23 23 19 14 11 10 9 7 5 4 4 3 2
15 15 17 19 21 23 27 31 34 35 37 40 41 37 32 29 27 22 19 21 25 27 26 24 23 22 21 19 18 18 17 16 13 10 7 5 4 4 3 2 2 2 2 2
16 15 14 14 15 15 19 24 27 30 33 34 32 29 25 23 20 17 16 18 19 19 18 16 15 14 14 13 12 12 11 9 5 3 2 1 1 1 1 1 1 1 1 1
12 12 12 12 14 17 21 24 25 27 28 25 21 18 15 14 12 10 11 12 13 11 10 10 10 10 9 9 6 5 5 4 1 0 0 0 0 0 0 0 0 0 0 0
7 8 9 10 13 20 25 24 21 19 18 16 12 9 8 7 6 5 5 5 5 5 5 6 6 6 7 5 2 1 2 1 0 0 0 0 0 0 0 0 0 0 0 0
6 7 8 8 12 17 19 15 10 8 8 8 7 5 5 5 4 3 3 2 2 3 4 4 4 4 4 4 1 0 0 0 0 0 0 0 0 0 0 0 0 0 0 0
7 7 7 7 8 10 9 6 3 2 3 4 4 3 3 4 4 4 3 3 3 3 3 3 2 1 1 1 0 0 0 0 0 0 0 0 0 0 0 0 0 0 0 0
5 6 6 6 5 5 3 1 0 1 2 2 2 2 2 3 4 4 3 2 2 2 2 1 1 0 0 0 0 0 0 0 0 0 0 0 0 0 0 0 0 0 0 0
4 5 5 5 5 4 1 0 0 0 1 1 2 2 2 2 2 1 1 1 1 1 1 0 0 0 0 0 0 0 0 0 0 0 0 0 0 0 0 0 0 0 0 0
1 2 3 4 5 4 2 1 1 1 0 0 1 2 1 1 1 0 0 0 0 0 0 0 0 0 0 0 0 0 0 0 0 0 0 0 0 0 0 0 0 0 0 0
0 0 1 2 3 3 3 2 2 1 0 0 0 0 0 0 0 0 0 0 0 0 0 0 0 0 0 0 0 0 0 0 0 0 0 0 0 0 0 0 0 0 0 0
0 0 0 1 1 1 2 2 1 1 0 0 0 0 0 0 0 0 0 0 0 0 0 0 0 0 0 0 0 0 0 0 0 0 0 0 0 0 0 0 0 0 0 0
0 0 0 0 0 0 1 1 0 0 0 0 0 0 0 0 0 0 0 0 0 0 0 0 0 0 0 0 0 0 0 0 0 0 0 0 0 0 0 0 0 0 0 0
0 0 0 0 0 0 0 0 0 0 0 0 0 0 0 0 0 0 0 0 0 0 0 0 0 0 0 0 0 0 0 0 0 0 0 0 0 0 0 0 0 0 0 0
0 0 0 0 0 0 0 0 0 0 0 0 0 0 0 0 0 0 0 0 0 0 0 0 0 0 0 0 0 0 0 0 0 0 0 0 0 0 0 0 0 0 0 0
0 0 0 0 0 0 0 0 0 0 0 0 0 0 0 0 0 0 0 0 0 0 0 0 0 0 0 0 0 0 0 0 0 0 0 0 0 0 0 0 0 0 0 0
0 0 0 0 0 0 0 0 0 0 0 0 0 0 0 0 0 0 0 0 0 0 0 0 0 0 0 0 0 0 0 0 0 0 0 0 0 0 0 0 0 0 0 0
1 1 0 0 0 0 0 0 0 0 0 0 0 0 0 0 0 0 0 0 0 0 0 0 0 0 0 0 0 0 0 0 0 0 0 0 0 0 0 0 0 0 0 0
0 1 0 0 0 0 0 0 0 0 0 0 0 0 0 0 0 0 0 0 0 0 0 0 0 0 0 0 0 0 0 0 0 0 0 0 0 0 0 0 0 0 0 0

GEFSNGP_con_prob3kmehi_162.txt.gz
EHI
0 0 0 0 0 0 0 0 0 1 3 6 12 21 30 35 38 41 44 44 42 34 24 18 14 10 9 11 12 11 11 13 14 13 8 6 6 6 5 5 5 4 3 3
0 0 0 0 0 0 0 1 1 3 6 9 15 23 29 33 36 40 43 43 39 31 23 17 13 12 10 9 10 9 11 13 14 12 9 7 6 6 6 6 6 4 2 1
0 0 0 0 0 1 1 2 4 7 11 16 21 24 26 29 34 38 39 35 30 24 18 14 12 13 12 10 9 8 10 13 14 12 9 7 6 6 6 6 6 4 2 0
0 0 0 0 0 2 3 5 8 13 20 23 26 28 28 28 31 33 31 26 21 18 16 14 13 15 14 12 11 9 8 10 12 10 8 7 6 6 6 5 4 3 1 0
0 0 0 0 0 2 5 8 12 18 23 26 29 31 30 27 27 27 25 23 20 17 17 16 15 15 14 12 12 10 8 7 9 9 8 7 7 6 5 4 3 2 1 0
0 0 0 1 2 3 5 8 13 18 21 22 25 28 27 24 25 26 26 24 22 19 17 15 12 11 12 11 10 10 9 9 10 10 10 8 7 5 4 3 3 2 0 0
0 0 0 2 4 4 4 6 11 14 16 17 19 22 22 22 25 27 26 23 21 18 15 10 7 8 8 8 8 8 9 10 9 9 9 7 6 4 3 3 3 1 0 0
0 0 0 2 4 4 4 8 11 12 13 16 18 20 20 22 25 25 21 17 15 14 11 6 4 4 4 4 4 5 7 7 6 5 5 5 4 3 3 3 2 1 0 0
0 0 0 1 2 3 6 12 15 15 16 19 19 19 19 19 21 19 16 13 11 10 7 4 2 2 2 2 2 2 4 4 3 2 2 2 2 2 2 2 2 1 0 0
0 0 1 2 3 5 11 16 18 18 19 20 18 16 16 16 15 13 12 10 9 6 4 3 1 1 1 1 0 1 1 1 1 1 1 1 1 1 1 1 1 0 0 0
0 0 2 3 5 10 15 16 16 17 17 16 13 11 11 11 10 9 9 8 6 5 4 2 2 1 1 0 0 0 0 0 0 0 0 0 0 0 0 0 0 0 0 0
0 0 1 4 7 10 12 12 11 11 10 8 7 7 7 8 7 7 6 6 5 4 3 1 1 1 0 0 0 0 0 0 0 0 0 0 0 0 0 0 0 0 0 0
1 1 2 4 6 7 6 6 6 5 4 4 4 5 5 6 6 5 4 4 4 3 2 0 0 0 0 0 0 0 0 0 0 0 0 0 0 0 0 0 0 0 0 0
2 2 2 4 4 3 2 2 2 1 1 2 3 3 3 3 3 3 3 3 3 3 2 1 0 0 0 0 0 0 0 0 0 0 0 0 0 0 0 0 0 0 0 0
1 1 1 3 3 2 1 1 0 0 0 1 1 1 1 1 1 1 1 2 3 3 2 1 0 0 0 0 0 0 0 0 0 0 0 0 0 0 0 0 0 0 0 0
0 0 1 2 2 2 1 0 0 0 0 0 0 0 0 0 0 0 0 1 1 2 2 1 0 0 0 0 0 0 0 0 0 0 0 0 0 0 0 0 0 0 0 0
0 0 1 2 1 1 1 0 0 0 0 0 0 0 0 0 0 0 0 0 0 1 1 0 0 0 0 0 0 0 0 0 0 0 0 0 0 0 0 0 0 0 0 0
0 0 1 1 0 0 0 0 0 0 0 0 0 0 0 0 0 0 0 0 0 0 0 0 0 0 0 0 0 0 0 0 0 0 0 0 0 0 0 0 0 0 0 0
0 0 0 0 0 0 0 0 0 0 0 0 0 0 0 0 0 0 0 0 0 0 0 0 0 0 0 0 0 0 0 0 0 0 0 0 0 0 0 0 0 0 0 0
0 0 0 0 0 0 0 0 0 0 0 0 0 0 0 0 0 0 0 0 0 0 0 0 0 0 0 0 0 0 0 0 0 0 0 0 0 0 0 0 0 0 0 0
0 0 0 0 0 0 0 0 0 0 0 0 0 0 0 0 0 0 0 0 0 0 0 0 0 0 0 0 0 0 0 0 0 0 0 0 0 0 0 0 0 0 0 0
0 0 0 0 0 0 0 0 0 0 0 0 0 0 0 0 0 0 0 0 0 0 0 0 0 0 0 0 0 0 0 0 0 0 0 0 0 0 0 0 0 0 0 0
0 0 0 0 0 0 0 0 0 0 0 0 0 0 0 0 0 0 0 0 0 0 0 0 0 0 0 0 0 0 0 0 0 0 0 0 0 0 0 0 0 0 0 0
0 0 0 0 0 0 0 0 0 0 0 0 0 0 0 0 0 0 0 0 0 0 0 0 0 0 0 0 0 0 0 0 0 0 0 0 0 0 0 0 0 0 0 0
0 0 0 0 0 0 0 0 0 0 0 0 0 0 0 0 0 0 0 0 0 0 0 0 0 0 0 0 0 0 0 0 0 0 0 0 0 0 0 0 0 0 0 0
0 0 0 0 0 0 0 0 0 0 0 0 0 0 0 0 0 0 0 0 0 0 0 0 0 0 0 0 0 0 0 0 0 0 0 0 0 0 0 0 0 0 0 0
0 0 0 0 0 0 0 0 0 0 0 0 0 0 0 0 0 0 0 0 0 0 0 0 0 0 0 0 0 0 0 0 0 0 0 0 0 0 0 0 0 0 0 0

GEFSNGP_con_prob3kmehi_168.txt.gz
EHI
0 0 0 0 0 0 0 0 0 0 0 0 1 4 9 14 20 23 21 19 18 16 14 12 10 9 8 6 5 4 3 3 1 0 0 0 0 1 1 1 2 1 1 1
0 0 0 0 0 0 0 0 0 0 0 1 2 5 10 16 22 24 22 19 17 15 13 10 8 8 6 4 2 2 2 2 2 1 1 2 2 3 3 3 3 3 2 2
0 0 0 0 0 0 0 0 0 0 1 2 3 6 11 17 22 24 21 19 17 15 12 8 7 6 4 1 0 1 1 2 3 4 4 5 5 5 5 5 4 3 3 3
0 0 0 0 0 0 0 0 0 1 2 4 5 7 10 14 16 17 18 17 18 16 11 7 6 5 2 0 1 2 2 3 3 5 6 6 6 6 5 4 3 3 3 2
0 0 0 0 0 0 0 0 1 2 4 6 8 8 7 8 9 10 12 13 14 13 10 6 5 3 1 0 1 2 2 3 3 4 4 5 5 4 3 3 3 2 1 1
0 0 0 0 0 0 0 0 1 2 4 7 9 6 4 5 7 8 8 8 8 8 8 6 2 1 0 1 1 1 2 2 3 3 3 3 4 3 2 2 2 1 0 0
0 0 0 0 0 0 0 0 1 1 2 5 6 4 4 7 10 9 8 7 5 6 7 4 1 0 0 1 2 2 2 3 4 3 3 2 3 2 2 1 1 0 0 0
0 0 0 0 0 0 0 1 2 1 1 3 5 6 9 13 14 12 10 7 5 6 6 3 1 0 0 1 1 1 2 4 4 3 2 2 2 1 1 0 0 0 0 0
0 0 0 0 1 1 1 3 3 2 2 4 8 10 14 16 15 13 10 6 3 4 4 2 0 0 0 0 0 0 1 1 1 1 1 1 1 0 0 0 0 0 0 0
1 1 1 1 2 2 2 3 4 4 5 8 10 12 14 14 12 10 8 4 2 1 2 1 0 0 0 0 0 0 0 0 0 0 0 0 0 0 0 0 0 0 0 0
1 2 2 2 2 1 1 2 3 5 7 9 10 9 9 8 7 6 5 3 1 1 1 0 0 0 0 0 0 0 0 0 0 0 0 0 0 0 0 0 0 0 0 0
0 1 1 1 1 0 0 1 1 2 5 7 7 4 3 3 3 4 3 3 3 2 1 0 0 0 0 0 0 0 0 0 0 0 0 0 0 0 0 0 0 0 0 0
0 0 0 0 0 0 0 0 0 1 2 4 3 1 0 1 2 3 3 3 3 2 1 0 0 0 0 0 0 0 0 0 0 0 0 0 0 0 0 0 0 0 0 0
0 0 0 0 0 0 0 0 0 0 1 1 1 0 1 2 3 3 3 2 2 1 1 0 0 0 0 0 0 0 0 0 0 0 0 0 0 0 0 0 0 0 0 0
0 0 0 0 0 0 0 0 0 0 0 0 0 0 1 2 2 2 1 1 1 0 0 0 0 0 0 0 0 0 0 0 0 0 0 0 0 0 0 0 0 0 0 0
0 0 0 0 0 0 0 0 0 0 0 0 0 0 0 1 1 1 0 0 0 0 0 0 0 0 0 0 0 0 0 0 0 0 0 0 0 0 0 0 0 0 0 0
0 0 0 0 0 0 0 0 0 0 0 0 0 0 0 0 0 0 0 0 0 0 0 0 0 0 0 0 0 0 0 0 0 0 0 0 0 0 0 0 0 0 0 0
0 0 0 0 0 0 0 0 0 0 0 0 0 0 0 0 0 0 0 0 0 0 0 0 0 0 0 0 0 0 0 0 0 0 0 0 0 0 0 0 0 0 0 0
0 0 0 0 0 0 0 0 0 0 0 0 0 0 0 0 0 0 0 0 0 0 0 0 0 0 0 0 0 0 0 0 0 0 0 0 0 0 0 0 0 0 0 0
0 0 0 0 0 0 0 0 0 0 0 0 0 0 0 0 0 0 0 0 0 0 0 0 0 0 0 0 0 0 0 0 0 0 0 0 0 0 0 0 0 0 0 0
0 0 0 0 0 0 0 0 0 0 0 0 0 0 0 0 0 0 0 0 0 0 0 0 0 0 0 0 0 0 0 0 0 0 0 0 0 0 0 0 0 0 0 0
0 0 0 0 0 0 0 0 0 0 0 0 0 0 0 0 0 0 0 0 0 0 0 0 0 0 0 0 0 0 0 0 0 0 0 0 0 0 0 0 0 0 0 0
0 0 0 0 0 0 0 0 0 0 0 0 0 0 0 0 0 0 0 0 0 0 0 0 0 0 0 0 0 0 0 0 0 0 0 0 0 0 0 0 0 0 0 0
0 0 0 0 0 0 0 0 0 0 0 0 0 0 0 0 0 0 0 0 0 0 0 0 0 0 0 0 0 0 0 0 0 0 0 0 0 0 0 0 0 0 0 0
0 0 0 0 0 0 0 0 0 0 0 0 0 0 0 0 0 0 0 0 0 0 0 0 0 0 0 0 0 0 0 0 0 0 0 0 0 0 0 0 0 0 0 0
0 0 0 0 0 0 0 0 0 0 0 0 0 0 0 0 0 0 0 0 0 0 0 0 0 0 0 0 0 0 0 0 0 0 0 0 0 0 0 0 0 0 0 0
0 0 0 0 0 0 0 0 0 0 0 0 0 0 0 0 0 0 0 0 0 0 0 0 0 0 0 0 0 0 0 0 0 0 0 0 0 0 0 0 0 0 0 0

GEFSNGP_con_prob3kmehi_174.txt.gz
EHI
0 0 0 0 0 0 0 0 0 0 1 3 4 4 6 11 18 24 29 35 42 45 44 42 39 34 31 29 28 30 31 28 25 22 18 15 13 12 12 11 9 8 6 6
0 0 0 0 0 0 0 0 0 0 1 3 5 5 7 11 17 23 30 38 43 45 44 41 38 36 34 32 31 31 29 25 20 17 14 11 9 10 11 11 9 7 6 5
0 0 0 0 0 0 0 0 0 1 2 4 6 7 8 11 16 22 31 40 43 43 43 40 38 38 37 36 34 32 27 22 17 13 10 8 7 8 9 9 8 6 5 4
0 0 0 0 0 0 0 0 1 2 4 6 7 9 10 12 17 23 32 39 41 43 43 41 39 38 37 37 36 32 25 20 15 11 9 9 9 10 9 8 8 7 5 4
0 0 0 0 0 0 1 1 2 6 9 9 8 8 12 16 20 27 36 41 43 44 43 41 39 36 36 36 34 29 22 17 13 10 10 11 12 12 10 8 8 7 5 4
0 0 0 0 0 1 2 3 5 10 15 15 12 13 18 23 25 30 40 45 45 45 45 43 38 33 31 31 29 25 19 14 11 10 10 12 15 14 10 8 7 6 4 4
0 0 0 0 1 2 4 8 11 14 18 21 22 24 28 29 29 34 42 45 45 45 44 42 37 30 26 26 25 22 18 14 12 11 11 12 14 13 9 6 5 3 2 2
0 1 2 4 6 7 10 15 16 15 19 25 29 31 30 29 31 36 40 41 40 40 41 39 34 28 25 23 21 20 18 15 13 12 12 12 13 11 7 3 2 1 0 0
3 3 5 8 12 13 15 18 18 16 18 23 27 27 26 27 30 33 33 33 34 35 34 32 29 25 23 20 18 17 16 13 11 10 10 10 10 7 4 1 0 0 0 0
9 6 5 9 13 14 14 15 16 15 15 17 21 22 22 24 26 27 26 26 29 30 25 23 21 19 17 16 15 15 13 9 6 5 5 5 5 4 2 1 0 0 0 0
11 9 7 9 11 12 12 13 14 13 13 15 17 16 16 18 22 23 21 20 23 23 18 15 14 12 11 11 12 12 8 4 1 1 1 1 1 1 1 0 0 0 0 0
10 10 12 13 13 12 10 11 12 11 12 15 15 13 14 16 17 18 16 15 15 16 14 11 9 8 8 8 9 7 4 1 0 0 0 0 0 0 0 0 0 0 0 0
9 10 12 14 13 11 9 10 11 11 12 14 14 13 13 13 13 13 12 12 11 12 11 9 6 6 5 6 6 4 1 0 0 0 0 0 0 0 0 0 0 0 0 0
7 8 9 10 10 7 7 8 9 9 11 13 13 13 11 10 10 9 9 10 11 10 9 6 4 3 3 3 3 1 0 0 0 0 0 0 0 0 0 0 0 0 0 0
6 6 7 7 5 3 3 5 7 8 8 9 10 10 9 8 7 7 7 9 10 8 6 3 1 1 1 1 1 0 0 0 0 0 0 0 0 0 0 0 0 0 0 0
6 6 6 6 3 1 1 2 4 5 5 5 6 6 6 6 5 4 5 6 7 5 3 1 0 0 0 0 0 0 0 0 0 0 0 0 0 0 0 0 0 0 0 0
5 5 5 4 2 1 0 0 1 2 2 2 3 4 4 3 2 2 2 3 4 3 2 0 0 0 0 0 0 0 0 0 0 0 0 0 0 0 0 0 0 0 0 0
2 2 2 1 1 0 0 0 0 0 1 2 2 2 2 1 0 0 0 1 2 2 1 0 0 0 0 0 0 0 0 0 0 0 0 0 0 0 0 0 0 0 0 0
0 0 0 0 0 0 0 0 0 0 0 1 2 1 1 0 0 0 0 1 1 1 0 0 0 0 0 0 0 0 0 0 0 0 0 0 0 0 0 0 0 0 0 0
0 0 0 0 0 0 0 0 0 1 1 1 1 0 0 0 0 0 0 0 0 0 0 0 0 0 0 0 0 0 0 0 0 0 0 0 0 0 0 0 0 0 0 0
0 0 0 0 0 0 0 0 0 1 1 0 0 0 0 0 0 0 0 0 0 0 0 0 0 0 0 0 0 0 0 0 0 0 0 0 0 0 0 0 0 0 0 0
0 0 0 0 0 0 0 0 0 1 1 0 0 0 0 0 0 0 0 0 0 0 0 0 0 0 0 0 0 0 0 0 0 0 0 0 0 0 0 0 0 0 0 0
1 0 0 0 0 0 0 0 0 0 0 0 0 0 0 0 0 0 0 0 0 0 0 0 0 0 0 0 0 0 0 0 0 0 0 0 0 0 0 0 0 0 0 0
1 0 0 0 1 0 0 0 0 0 0 0 0 0 0 0 0 0 0 0 0 0 0 0 0 0 0 0 0 0 0 0 0 0 0 0 0 0 0 0 0 0 0 0
1 0 0 0 0 0 0 0 0 0 0 0 0 0 0 0 0 0 0 0 0 0 0 0 0 0 0 0 0 0 0 0 0 0 0 0 0 0 0 0 0 0 0 0
0 0 0 0 0 0 0 0 0 0 0 0 0 0 0 0 0 0 0 0 0 0 0 0 0 0 0 0 0 0 0 0 0 0 0 0 0 0 0 0 0 0 0 0
0 0 0 0 0 0 0 0 0 0 0 0 0 0 0 0 0 0 0 0 0 0 0 0 0 0 0 0 0 0 0 0 0 0 0 0 0 0 0 0 0 0 0 0